This is the latest recevied weather packets stored in our database for station/object KA1JKB. If no packets are shown the sender has not sent any weather packets the latest 10 day(s).
| Time | Temp. | Humidity | Pressure | Rain* | Wind** | Luminosity | Snow |
|---|---|---|---|---|---|---|---|
| 1787706033 | 18.33° C | 95% | 1015.9 hPa | 0 mm | - | 0 W/m² | - |
| 1787705728 | 18.33° C | 95% | 1016.1 hPa | 0 mm | - | 0 W/m² | - |
| 1787705424 | 18.89° C | 94% | 1016 hPa | 0 mm | - | 0 W/m² | - |
| 1787705120 | 18.89° C | 94% | 1015.9 hPa | 0 mm | - | 0 W/m² | - |
| 1787704815 | 18.89° C | 93% | 1015.8 hPa | 0 mm | - | 0 W/m² | - |
| 1787704510 | 19.44° C | 93% | 1015.8 hPa | 0 mm | - | 0 W/m² | - |
| 1787704211 | 19.44° C | 93% | 1015.8 hPa | 0 mm | - | 0 W/m² | - |
| 1787703910 | 20° C | 92% | 1015.7 hPa | 0 mm | - | 2 W/m² | - |
| 1787703605 | 20.56° C | 90% | 1016 hPa | 0 mm | - | 3 W/m² | - |
| 1787703300 | 20.56° C | 87% | 1015.8 hPa | 0 mm | - | 5 W/m² | - |
| 1787702995 | 20.56° C | 85% | 1016.1 hPa | 0 mm | - | 9 W/m² | - |
| 1787702691 | 21.11° C | 84% | 1015.8 hPa | 0 mm | - | 12 W/m² | - |
| 1787702390 | 21.67° C | 84% | 1016 hPa | 0 mm | - | 16 W/m² | - |
| 1787702085 | 21.67° C | 83% | 1015.7 hPa | 0 mm | - | 21 W/m² | - |
| 1787701783 | 22.22° C | 80% | 1015.9 hPa | 0 mm | - | 24 W/m² | - |
| 1787701483 | 22.78° C | 79% | 1015.8 hPa | 0 mm | - | 26 W/m² | - |
| 1787701177 | 22.78° C | 78% | 1015.6 hPa | 0 mm | - | 30 W/m² | - |
| 1787700874 | 22.78° C | 76% | 1015.6 hPa | 0 mm | - | 34 W/m² | - |
| 1787700569 | 23.33° C | 75% | 1015.6 hPa | 0 mm | - | 38 W/m² | - |
| 1787700265 | 23.89° C | 72% | 1015.7 hPa | 0 mm | - | 56 W/m² | - |
| 1787699961 | 23.89° C | 71% | 1015.8 hPa | 0 mm | - | 42 W/m² | - |
| 1787699656 | 25° C | 70% | 1015.5 hPa | 0 mm | - | 42 W/m² | - |
| 1787699352 | 25° C | 69% | 1015.5 hPa | 0 mm | - | 90 W/m² | - |
| 1787699048 | 24.44° C | 68% | 1015.8 hPa | 0 mm | - | 59 W/m² | - |
| 1787698743 | 24.44° C | 66% | 1015.4 hPa | 0 mm | - | 79 W/m² | - |
* Rain latest hour (hover to see other rain measurements)
** Current wind speed in m/s (hover to see current wind gust speed)